Weather History for Fort Morgan, CO

Change the Weather History Date:

Monday, February 18, 2013

  Actual Average (KAKO) Record (KAKO)
Temperature  
Mean Temperature 30 °F 32 °F  
Max Temperature 42 °F 44 °F 67 °F (1943)
Min Temperature 15 °F 20 °F -24 °F (1942)
Degree Days  
Heating Degree Days 36    
Month to date heating degree days  
Cooling Degree Days 0    
Month to date cooling degree days  
Moisture  
Dew Point 14 °F    
Average Humidity 56    
Maximum Humidity 84    
Minimum Humidity 20    
Precipitation  
Precipitation 0.00 in 0.01 in 0.16 in (1984)
Month to date precipitation 0.25  
Year to date precipitation 0.55  
Sea Level Pressure  
Sea Level Pressure 29.96 in    
Wind  
Wind Speed 16 mph (NNW)    
Max Wind Speed 31 mph    
Max Gust Speed 39 mph    
Visibility 10 miles    
Events      
T = Trace of Precipitation, MM = Missing Value Source: NWS Daily Summary

Daily Weather History Graph

Daily Weather History Graph

Search for Another Location

Airport:

Trip Planner

Search our weather history database for the weather conditions in past years. The results will help you decide how hot, cold, wet, or windy it might be!

Date:

Astronomy

Feb. 18, 2013 Rise Set
Actual Time 6:44 AM MST 5:34 PM MST
Civil Twilight 6:16 AM MST 6:02 PM MST
Nautical Twilight 5:44 AM MST 6:34 PM MST
Astronomical Twilight 5:13 AM MST 7:05 PM MST
Moon 11:21 AM MST (2/18) 1:26 AM MST (2/18)
Length of Visible Light 11h 45m
Length of Day
10h 50m
First Quarter, 59% of the Moon is Illuminated
Feb 18
First Quarter
Feb 25
Full
Mar 4
Last Quarter
Mar 11
New
Mar 19
First Quarter

Hourly Weather History & Observations

Time (MST) Temp. Windchill Dew Point Humidity Pressure Visibility Wind Dir Wind Speed Gust Speed Precip Events Conditions
12:15 AM 28.2 °F 17.7 °F 19.4 °F 70% 29.78 in 10.0 mi NNW 12.7 mph - N/A   Clear
12:35 AM 28.2 °F 17.2 °F 19.4 °F 70% 29.79 in 10.0 mi NNW 13.8 mph 21.9 mph N/A   Clear
12:55 AM 28.4 °F 17.0 °F 19.4 °F 69% 29.79 in 10.0 mi North 15.0 mph - N/A   Scattered Clouds
1:15 AM 28.4 °F 16.6 °F 18.9 °F 67% 29.79 in 10.0 mi NNW 16.1 mph 20.7 mph N/A   Scattered Clouds
1:35 AM 28.4 °F 16.2 °F 19.0 °F 68% 29.80 in 10.0 mi NNW 17.3 mph - N/A   Scattered Clouds
1:55 AM 28.4 °F 15.4 °F 19.2 °F 69% 29.81 in 10.0 mi NNW 19.6 mph - N/A   Mostly Cloudy
2:15 AM 29.1 °F 16.0 °F 19.4 °F 67% 29.82 in 10.0 mi NNW 20.7 mph - N/A   Overcast
2:35 AM 28.9 °F 16.9 °F 19.4 °F 68% 29.83 in 10.0 mi NNW 17.3 mph 25.3 mph N/A   Mostly Cloudy
2:55 AM 27.5 °F 15.0 °F 19.2 °F 71% 29.83 in 10.0 mi NNW 17.3 mph 21.9 mph N/A   Scattered Clouds
3:15 AM 27.5 °F 14.2 °F 18.9 °F 70% 29.83 in 10.0 mi NNW 19.6 mph - N/A   Scattered Clouds
3:35 AM 27.7 °F 13.8 °F 18.5 °F 68% 29.83 in 10.0 mi NNW 21.9 mph 27.6 mph N/A   Mostly Cloudy
3:55 AM 26.6 °F 13.4 °F 18.5 °F 71% 29.83 in 10.0 mi NNW 18.4 mph - N/A   Scattered Clouds
4:15 AM 25.5 °F 12.0 °F 18.5 °F 75% 29.85 in 10.0 mi North 18.4 mph 24.2 mph N/A   Clear
4:35 AM 25.9 °F 12.1 °F 18.5 °F 74% 29.86 in 10.0 mi North 19.6 mph 24.2 mph N/A   Clear
4:55 AM 24.8 °F 12.9 °F 17.6 °F 74% 29.87 in 10.0 mi NNW 13.8 mph - N/A   Clear
5:15 AM 23.7 °F 12.1 °F 17.2 °F 76% 29.87 in 10.0 mi NNW 12.7 mph - N/A   Clear
5:35 AM 23.0 °F 11.7 °F 17.1 °F 78% 29.89 in 10.0 mi NW 11.5 mph - N/A   Clear
5:55 AM 22.8 °F 11.5 °F 17.2 °F 79% 29.90 in 10.0 mi NW 11.5 mph - N/A   Clear
6:15 AM 21.7 °F 10.8 °F 16.7 °F 81% 29.91 in 10.0 mi WNW 10.4 mph - N/A   Clear
6:35 AM 20.3 °F 9.8 °F 15.8 °F 83% 29.92 in 10.0 mi WNW 9.2 mph - N/A   Clear
6:55 AM 19.8 °F 9.1 °F 15.6 °F 84% 29.92 in 10.0 mi NW 9.2 mph - N/A   Clear
7:15 AM 21.9 °F 8.2 °F 16.7 °F 80% 29.94 in 10.0 mi NW 16.1 mph - N/A   Clear
7:35 AM 25.9 °F 13.3 °F 17.6 °F 71% 29.95 in 10.0 mi NNW 16.1 mph - N/A   Clear
7:55 AM 28.2 °F 15.9 °F 18.0 °F 65% 29.96 in 10.0 mi NNW 17.3 mph 21.9 mph N/A   Clear
8:15 AM 30.2 °F 18.9 °F 18.3 °F 61% 29.97 in 10.0 mi NNW 16.1 mph - N/A   Clear
8:35 AM 31.5 °F 20.1 °F 18.3 °F 58% 29.97 in 10.0 mi NNW 17.3 mph 23.0 mph N/A   Clear
8:55 AM 32.5 °F 19.9 °F 18.1 °F 55% 29.97 in 10.0 mi NNW 23.0 mph 28.8 mph N/A   Clear
9:15 AM 34.2 °F 21.5 °F 16.3 °F 48% 29.98 in 10.0 mi NNW 25.3 mph 33.4 mph N/A   Clear
9:35 AM 35.6 °F 24.0 °F 15.8 °F 44% 29.98 in 10.0 mi NNW 23.0 mph 31.1 mph N/A   Clear
9:55 AM 37.4 °F 27.2 °F 15.6 °F 41% 29.99 in 10.0 mi NNW 19.6 mph 27.6 mph N/A   Clear
10:15 AM 37.6 °F 27.4 °F 15.4 °F 41% 29.99 in 10.0 mi NW 19.6 mph 27.6 mph N/A   Clear
10:35 AM 38.8 °F 29.7 °F 14.4 °F 37% 29.99 in 10.0 mi NW 17.3 mph 25.3 mph N/A   Scattered Clouds
10:55 AM 39.0 °F 31.4 °F 12.7 °F 34% 29.99 in 10.0 mi NW 12.7 mph 24.2 mph N/A   Mostly Cloudy
11:15 AM 40.1 °F 30.7 °F 12.2 °F 32% 29.99 in 10.0 mi NW 19.6 mph 27.6 mph N/A   Mostly Cloudy
11:35 AM 41.0 °F 33.1 °F 10.6 °F 29% 29.98 in 10.0 mi NW 15.0 mph 24.2 mph N/A   Scattered Clouds
11:55 AM 42.3 °F 35.5 °F 9.3 °F 26% 29.97 in 10.0 mi NNW 12.7 mph 21.9 mph N/A   Clear
12:15 PM 39.7 °F 30.9 °F 9.3 °F 29% 29.96 in 10.0 mi NNW 17.3 mph 21.9 mph N/A   Mostly Cloudy
12:35 PM 41.7 °F 32.6 °F 9.0 °F 26% 29.96 in 10.0 mi NW 20.7 mph 25.3 mph N/A   Mostly Cloudy
12:55 PM 40.6 °F 31.4 °F 9.1 °F 27% 29.95 in 10.0 mi North 19.6 mph 23.0 mph N/A   Scattered Clouds
1:15 PM 39.9 °F 30.5 °F 7.5 °F 26% 29.96 in 10.0 mi NW 19.6 mph 26.5 mph N/A   Mostly Cloudy
1:35 PM 39.2 °F 31.6 °F 7.3 °F 27% 29.95 in 10.0 mi NW 12.7 mph 24.2 mph N/A   Overcast
1:55 PM 40.3 °F 29.7 °F 4.8 °F 23% 29.94 in 10.0 mi WNW 25.3 mph 32.2 mph N/A   Overcast
2:15 PM 40.3 °F 30.2 °F 6.6 °F 25% 29.94 in 10.0 mi NW 23.0 mph 31.1 mph N/A   Mostly Cloudy
2:35 PM 39.9 °F 28.2 °F 3.2 °F 22% 29.95 in 10.0 mi NW 31.1 mph 38.0 mph N/A   Overcast
2:55 PM 39.6 °F 28.3 °F 3.6 °F 22% 29.96 in 10.0 mi NW 27.6 mph 39.1 mph N/A   Overcast
3:15 PM 39.9 °F 29.7 °F 1.6 °F 20% 29.96 in 10.0 mi NW 23.0 mph 35.7 mph N/A   Mostly Cloudy
3:35 PM 41.4 °F 30.7 °F 2.1 °F 20% 29.97 in 10.0 mi NW 27.6 mph 35.7 mph N/A   Clear
3:55 PM 40.6 °F 29.6 °F 3.0 °F 21% 29.98 in 10.0 mi NW 28.8 mph 38.0 mph N/A   Clear
4:15 PM 40.1 °F 29.0 °F 2.5 °F 21% 29.98 in 10.0 mi NW 27.6 mph 38.0 mph N/A   Clear
4:35 PM 39.0 °F 28.8 °F 1.0 °F 20% 29.99 in 10.0 mi NW 21.9 mph 31.1 mph N/A   Clear
4:55 PM 37.6 °F 26.6 °F 2.7 °F 23% 29.99 in 10.0 mi NNW 23.0 mph 32.2 mph N/A   Clear
5:15 PM 36.0 °F 24.4 °F 1.4 °F 23% 30.00 in 10.0 mi NNW 23.0 mph 28.8 mph N/A   Clear
5:35 PM 33.3 °F 21.8 °F 2.8 °F 28% 30.00 in 10.0 mi NNW 19.6 mph - N/A   Clear
5:55 PM 30.7 °F 19.6 °F 13.6 °F 49% 30.01 in 10.0 mi North 16.1 mph - N/A   Clear
6:15 PM 29.8 °F 19.8 °F 12.9 °F 49% 30.01 in 10.0 mi North 12.7 mph 18.4 mph N/A   Clear
6:35 PM 28.4 °F 17.0 °F 15.3 °F 58% 30.02 in 10.0 mi North 15.0 mph 19.6 mph N/A   Clear
6:55 PM 26.6 °F 15.7 °F 17.1 °F 67% 30.03 in 10.0 mi North 12.7 mph 18.4 mph N/A   Clear
7:15 PM 25.7 °F 14.6 °F 17.6 °F 71% 30.04 in 10.0 mi North 12.7 mph - N/A   Clear
7:35 PM 24.8 °F 16.1 °F 17.2 °F 73% 30.05 in 10.0 mi North 8.1 mph - N/A   Clear
7:55 PM 22.1 °F 12.8 °F 16.2 °F 78% 30.04 in 10.0 mi North 8.1 mph - N/A   Clear
8:15 PM 21.7 °F 15.5 °F 16.0 °F 78% 30.04 in 10.0 mi NNE 4.6 mph - N/A   Clear
8:35 PM 21.6 °F - 15.6 °F 78% 30.05 in 10.0 mi Calm Calm - N/A   Clear
8:55 PM 21.0 °F 11.4 °F 14.4 °F 75% 30.06 in 10.0 mi South 8.1 mph - N/A   Clear
9:15 PM 23.4 °F - 16.2 °F 74% 30.07 in 10.0 mi Calm Calm - N/A   Clear
9:35 PM 21.4 °F - 14.5 °F 75% 30.07 in 10.0 mi Calm Calm - N/A   Clear
9:55 PM 19.4 °F 14.3 °F 13.5 °F 78% 30.09 in 10.0 mi South 3.5 mph - N/A   Clear
10:15 PM 21.0 °F - 15.4 °F 79% 30.09 in 10.0 mi Calm Calm - N/A   Clear
10:35 PM 19.2 °F - 14.0 °F 80% 30.09 in 10.0 mi Calm Calm - N/A   Clear
10:55 PM 18.7 °F - 13.5 °F 80% 30.10 in 10.0 mi Calm Calm - N/A   Clear
11:15 PM 19.6 °F 14.5 °F 14.0 °F 79% 30.11 in 10.0 mi WSW 3.5 mph - N/A   Clear
11:35 PM 17.4 °F 10.4 °F 13.5 °F 84% 30.11 in 10.0 mi West 4.6 mph - N/A   Clear
11:55 PM 15.6 °F 8.3 °F 11.7 °F 84% 30.10 in 10.0 mi WNW 4.6 mph - N/A   Clear